www.pogodaiklimat.ru

Погода и климат >> Архив погоды >> Япония >> Хиросима


АРХИВ ПОГОДЫ в Хиросиме

Время (UTC), дата Ветер
(напр.,м/с)
 
Видим.   Явления Облачность Т
(С)
Тd
(С)
f
(%)
Тe
(С)
Тes
(С)
Комфортность P
(гПа)
Po
(гПа)
Тmin
(С)
Tmax
(С)
R
(мм)
R24
(мм)
S
(см)
10 12.05 ЮЗ 2 н/о н/о +24.2 +3.5 26 +24 +24 комфорт 1014.4 1008.2
11 12.05 С 1 н/о н/о +23.4 +4.9 30 +23 +23 комфорт 1014.8 1008.6
12 12.05 ЮЗ 3 25 км 1/0
[Ci fib]
+22.3 +4.8 32 +23 +23 комфорт 1015.6 1009.3 +29.0
13 12.05 З 2 н/о н/о +21.0 +7.6 42 +23 +23 комфорт 1016.2 1009.9
14 12.05 С 3 н/о н/о +20.0 +7.1 43 +21 +21 комфорт 1016.7 1010.4
15 12.05 С 5 н/о н/о +19.1 +6.6 44 +19 +19 тепло 1016.5 1010.2
16 12.05 С 4 н/о н/о +18.2 +6.4 46 +18 +18 тепло 1016.0 1009.6
17 12.05 С 3 н/о н/о +17.3 +6.8 50 +17 +17 тепло 1016.2 1009.8
18 12.05 С 6 25 км ясно +17.0 +6.8 51 +16 +16 по сезону 1016.1 1009.7
19 12.05 С 4 н/о н/о +16.6 +6.7 52 +16 +16 по сезону 1016.5 1010.1
20 12.05 С 3 н/о н/о +16.0 +7.2 56 +16 +16 по сезону 1016.9 1010.5
21 12.05 С 5 25 км 9/0
[Ci fib]
+16.2 +7.2 55 +15 +15 по сезону 1017.0 1010.6
22 12.05 С 5 н/о н/о +16.7 +7.1 53 +16 +16 прохладно 1017.2 1010.8
23 12.05 С 2 н/о н/о +18.8 +7.6 48 +20 +20 тепло 1017.5 1011.1
00 13.05 СВ 1 20 км 9/0
[Ac trans Ci sp]
+20.5 +6.8 41 +23 +34 комфорт 1017.5 1011.2 +15.8
01 13.05 СЗ 1 н/о н/о +23.7 +6.9 34 +24 +24 комфорт 1017.1 1010.9
02 13.05 ЮЗ 4 н/о н/о +24.0 +7.2 34 +24 +24 комфорт 1016.7 1010.5
03 13.05 ЮЗ 6 25 км 8/0
[Ac trans Ci sp]
+24.6 +8.1 35 +25 +32 комфорт 1016.6 1010.4
04 13.05 ЮЗ 6 н/о н/о +25.7 +8.7 34 +26 +26 жарко 1016.3 1010.1
05 13.05 ЮЗ 6 н/о н/о +25.9 +9.3 35 +26 +26 жарко 1015.7 1009.5
06 13.05 Ю 3 25 км 8/1
[Cu med, cong Ci fib]
+26.6 +9.5 34 +27 +35 жарко 1015.1 1008.9
07 13.05 Ю 3 н/о н/о +26.2 +7.8 31 +26 +26 жарко 1014.8 1008.6
08 13.05 Ю 4 н/о н/о +24.9 +9.6 38 +26 +26 жарко 1014.8 1008.6
09 13.05 Ю 3 20 км 9/1
[Cu med, cong Ac trans Ci sp]
+24.4 +10.0 40 +25 +26 комфорт 1014.4 1008.2
10 13.05 Ю 3 н/о н/о +23.5 +10.9 45 +25 +25 комфорт 1014.9 1008.7
11 13.05 Ю 2 н/о н/о +23.0 +11.1 47 +25 +25 комфорт 1015.5 1009.3
12 13.05 ЮЗ 3 20 км 9/1
[Cu med, cong Ac As]
+22.3 +12.3 53 +25 +25 комфорт 1015.9 1009.6 +27.2
13 13.05 ЮЗ 2 н/о н/о +22.0 +12.6 55 +25 +25 комфорт 1015.9 1009.6
15 13.05 ЮЗ 3 н/о н/о +21.7 +13.1 58 +24 +24 комфорт 1015.8 1009.5
16 13.05 Ю 3 н/о н/о +21.7 +12.8 57 +24 +24 комфорт 1015.2 1008.9
17 13.05 Ю 3 н/о н/о +21.5 +12.6 57 +24 +24 комфорт 1014.6 1008.3
18 13.05 Ю 2 20 км {ливн. осадки} 10/6
[Cu med, cong Ac As]
+21.2 +12.6 58 +23 +23 комфорт 1014.3 1008.0 0.0
19 13.05 ЮЗ 1 н/о н/о +20.9 +13.1 61 +25 +25 комфорт 1014.7 1008.4
20 13.05 С 1 н/о н/о +20.5 +13.7 65 +24 +24 комфорт 1014.5 1008.2
21 13.05 С 2 20 км {ливн. осадки} 9/4
[Cu med, cong Ac As]
+20.0 +13.9 68 +23 +23 комфорт 1014.4 1008.1
22 13.05 С 3 н/о н/о +20.0 +14.2 69 +22 +22 комфорт 1014.8 1008.5
23 13.05 С 2 н/о н/о +20.8 +14.0 65 +24 +24 комфорт 1015.3 1009.0
00 14.05 В 2 20 км {ливн. осадки} 9/1
[Cu med, cong Ac As]
+21.9 +11.0 50 +24 +28 комфорт 1015.3 1009.0 +19.8 0.0
02 14.05 З 2 н/о н/о +24.7 +10.9 42 +26 +26 жарко 1015.1 1008.9
03 14.05 ЮЗ 4 30 км 8/3
[Cu med, cong Ac trans]
+25.1 +10.9 41 +26 +32 жарко 1014.7 1008.5
05 14.05 ЮЗ 5 н/о н/о +23.1 +11.2 47 +25 +25 комфорт 1014.0 1007.8
06 14.05 ЮЗ 5 30 км 9/3
[Cu med, cong Ac As]
+23.8 +10.1 42 +25 +27 комфорт 1013.4 1007.2
07 14.05 ЮЗ 4 н/о н/о +23.3 +10.4 44 +25 +25 комфорт 1013.4 1007.2
08 14.05 ЮЗ 3 н/о н/о +23.7 +10.1 42 +25 +25 комфорт 1013.4 1007.2
09 14.05 ЮЗ 4 30 км 3/1
[Cu med, cong Ci sp]
+23.1 +9.5 42 +25 +25 комфорт 1013.0 1006.8
10 14.05 ЮЗ 3 н/о н/о +22.3 +9.1 43 +24 +24 комфорт 1013.2 1007.0
11 14.05 ЮЗ 2 н/о н/о +21.9 +9.5 45 +23 +23 комфорт 1013.7 1007.4
12 14.05 СВ 2 30 км 6/0
[Ci fib]
+21.5 +9.7 47 +23 +23 комфорт 1013.7 1007.4 +25.4
13 14.05 С 2 н/о н/о +20.6 +10.7 53 +23 +23 комфорт 1014.5 1008.2
14 14.05 С 3 н/о н/о +19.5 +11.3 59 +21 +21 комфорт 1014.2 1007.9
15 14.05 СВ 2 н/о н/о +18.9 +10.5 58 +20 +20 тепло 1014.0 1007.7
16 14.05 С 4 н/о н/о +18.1 +10.2 60 +18 +18 тепло 1014.3 1007.9
17 14.05 С 5 н/о н/о +17.4 +10.1 62 +17 +17 тепло 1014.4 1008.0
18 14.05 С 5 30 км 8/0
[Ci sp]
+17.5 +9.2 58 +17 +17 тепло 1014.7 1008.3
19 14.05 С 5 н/о н/о +17.0 +9.2 60 +16 +16 по сезону 1014.9 1008.5
20 14.05 С 3 н/о н/о +16.8 +9.5 62 +17 +17 по сезону 1015.4 1009.0
21 14.05 С 3 25 км 9/3
[Sc Ci sp]
+16.7 +9.6 63 +17 +17 по сезону 1015.8 1009.4
22 14.05 С 4 н/о н/о +16.9 +9.8 63 +17 +17 по сезону 1016.0 1009.6
23 14.05 С 3 н/о н/о +18.8 +10.4 58 +20 +20 тепло 1016.0 1009.7
00 15.05 С 2 25 км 8/1
[Cu Sc Ci fib]
+20.7 +11.1 54 +23 +33 комфорт 1016.0 1009.7 +16.3
01 15.05 С 2 н/о н/о +22.8 +11.9 50 +25 +25 комфорт 1015.5 1009.3
02 15.05 Ю 4 н/о н/о +22.7 +10.2 45 +25 +25 комфорт 1014.9 1008.7
03 15.05 ЮЗ 3 25 км 9/1
[Cu hum Ci sp]
+24.7 +12.3 46 +26 +39 жарко 1013.8 1007.6
04 15.05 ЮЗ 4 н/о н/о +24.3 +11.6 45 +26 +26 жарко 1013.7 1007.5
05 15.05 ЮЗ 3 н/о н/о +24.5 +11.8 45 +26 +26 жарко 1013.2 1007.0
06 15.05 ЮЗ 5 25 км 8/1
[Cu med, cong Ci fib]
+24.7 +10.9 42 +26 +31 жарко 1012.6 1006.4
08 15.05 ЮЗ 5 н/о н/о +23.7 +12.4 49 +26 +26 жарко 1011.9 1005.7
09 15.05 ЮЗ 5 30 км 9/1
[Cu med, cong Ac trans Ci fib]
+22.2 +12.2 53 +25 +25 комфорт 1012.5 1006.3
10 15.05 ЮЗ 4 н/о н/о +22.1 +11.2 50 +24 +24 комфорт 1012.9 1006.7
11 15.05 Ю 1 н/о н/о +21.8 +12.1 54 +24 +24 комфорт 1013.1 1006.8
12 15.05 Ю 2 30 км 3/0
[Ci fib]
+21.7 +12.0 54 +24 +24 комфорт 1013.9 1007.6 +25.8
13 15.05 Ю 2 н/о н/о +20.9 +12.3 58 +24 +24 комфорт 1014.0 1007.7
14 15.05 Ю 1 н/о н/о +20.7 +12.7 60 +24 +24 комфорт 1013.9 1007.6
15 15.05 В 1 н/о н/о +20.4 +12.6 61 +24 +24 комфорт 1013.7 1007.4
16 15.05 С 1 н/о н/о +19.3 +12.3 64 +22 +22 комфорт 1013.5 1007.2
17 15.05 С 2 н/о н/о +18.6 +12.6 68 +20 +20 тепло 1013.4 1007.1
18 15.05 С 2 30 км 4/0
[Ac trans Ci fib]
+18.1 +12.3 69 +19 +19 тепло 1013.9 1007.5
19 15.05 С 4 н/о н/о +17.4 +12.1 71 +17 +17 по сезону 1014.1 1007.7
20 15.05 С 4 н/о н/о +17.0 +11.9 72 +17 +17 по сезону 1014.2 1007.8
21 15.05 С 4 30 км 9/1
[Sc Ac trans Ci fib]
+17.2 +11.7 70 +17 +17 по сезону 1014.7 1008.3
22 15.05 С 3 н/о н/о +17.8 +11.8 68 +18 +18 по сезону 1014.6 1008.2
23 15.05 С 2 н/о н/о +19.9 +11.7 59 +22 +22 комфорт 1014.3 1008.0
00 16.05 ЮЗ 1 25 км 9/1
[Cu hum Ci fib]
+21.1 +11.7 55 +23 +33 комфорт 1014.4 1008.1 +16.8
01 16.05 ЮЗ 2 н/о н/о +22.9 +12.5 52 +26 +26 жарко 1013.9 1007.7
02 16.05 ЮЗ 4 н/о н/о +23.5 +12.2 49 +25 +25 комфорт 1013.8 1007.6
03 16.05 ЮЗ 3 35 км 8/1
[Cu med, cong Ci fib]
+25.3 +11.5 42 +27 +40 жарко 1013.6 1007.4
04 16.05 ЮЗ 3 н/о н/о +25.9 +11.7 41 +27 +27 жарко 1013.0 1006.8
05 16.05 Ю 4 н/о н/о +26.1 +12.2 42 +28 +28 жарко 1012.3 1006.1
06 16.05 ЮЗ 6 35 км 9/3
[Cu med, cong Ac trans Ci sp]
+26.0 +11.0 39 +27 +29 жарко 1012.4 1006.2
07 16.05 Ю 5 н/о н/о +25.2 +11.8 43 +27 +27 жарко 1012.4 1006.2
08 16.05 ЮЗ 6 н/о н/о +24.1 +12.4 48 +26 +26 жарко 1012.7 1006.5
09 16.05 ЮЗ 4 35 км 9/1
[Cu Sc Ci fib]
+23.6 +12.9 51 +26 +26 жарко 1012.9 1006.7
10 16.05 ЮЗ 2 н/о н/о +23.0 +12.9 53 +26 +26 жарко 1013.1 1006.9
11 16.05 Ю 3 н/о н/о +22.4 +14.0 59 +26 +26 жарко 1013.8 1007.6
12 16.05 Ю 3 30 км 9/1
[Sc Ci fib]
+21.9 +13.3 58 +25 +25 комфорт 1014.7 1008.4 +27.0
13 16.05 Ю 3 н/о н/о +21.7 +12.8 57 +24 +24 комфорт 1015.1 1008.8
14 16.05 Ю 2 н/о н/о +21.3 +12.7 58 +24 +24 комфорт 1015.0 1008.7
15 16.05 СЗ 2 н/о н/о +20.8 +13.3 62 +24 +24 комфорт 1015.2 1008.9
16 16.05 С 2 н/о н/о +19.5 +13.2 67 +22 +22 комфорт 1015.2 1008.9
17 16.05 С 2 н/о н/о +19.0 +13.2 69 +21 +21 комфорт 1015.4 1009.1
18 16.05 С 3 20 км 9/1
[Sc Ci fib]
+18.4 +13.1 71 +19 +19 тепло 1015.5 1009.1
19 16.05 С 4 н/о н/о +17.6 +12.5 72 +17 +17 по сезону 1015.7 1009.3
20 16.05 С 3 н/о н/о +17.4 +12.3 72 +17 +17 по сезону 1016.2 1009.8
21 16.05 С 4 25 км 6/0
[Ci fib]
+17.2 +12.1 72 +17 +17 по сезону 1016.8 1010.4
22 16.05 С 4 н/о н/о +17.5 +12.0 70 +17 +17 прохладно 1017.1 1010.7
23 16.05 С 1 н/о н/о +20.6 +12.6 60 +24 +24 комфорт 1017.3 1011.0
00 17.05 СЗ 2 30 км 8/1
[Cu hum Ci fib]
+21.7 +11.7 53 +24 +33 комфорт 1017.1 1010.8 +17.0
01 17.05 ЮЗ 2 н/о н/о +23.8 +11.2 45 +25 +25 комфорт 1016.5 1010.3
02 17.05 Ю 3 н/о н/о +25.6 +11.4 41 +27 +27 жарко 1015.9 1009.7
03 17.05 ЮЗ 3 30 км 9/1
[Cu med, cong Ci fib]
+25.6 +11.0 40 +27 +39 жарко 1015.1 1008.9
04 17.05 Ю 5 н/о н/о +27.1 +9.9 34 +28 +28 жарко 1014.2 1008.1
05 17.05 ЮЗ 6 н/о н/о +26.7 +9.6 34 +27 +27 жарко 1013.7 1007.6
06 17.05 З 4 30 км 9/4
[Cu med, cong Ci fib]
+26.7 +10.4 36 +27 +32 жарко 1013.4 1007.3
08 17.05 Ю 4 н/о н/о +25.5 +10.6 39 +26 +26 жарко 1013.8 1007.6
09 17.05 Ю 4 30 км 9/4
[Cu Sc Ac trans Ci sp]
+25.6 +11.4 41 +27 +27 жарко 1014.0 1007.8
10 17.05 Ю 5 н/о н/о +24.4 +10.0 40 +25 +25 комфорт 1014.6 1008.4
11 17.05 Ю 4 н/о н/о +23.6 +8.5 38 +24 +24 комфорт 1015.3 1009.1
12 17.05 ЮЗ 4 30 км 9/1
[Cu Sc Ac trans Ci sp]
+22.8 +9.2 42 +24 +24 комфорт 1015.7 1009.5 +28.6
13 17.05 Ю 3 н/о н/о +22.4 +9.2 43 +24 +24 комфорт 1016.0 1009.7
14 17.05 Ю 2 н/о н/о +22.0 +8.5 42 +23 +23 комфорт 1015.7 1009.4
15 17.05 ЮВ 1 н/о н/о +21.9 +8.8 43 +23 +23 комфорт 1015.6 1009.3
16 17.05 СВ 2 н/о н/о +21.2 +9.1 46 +22 +22 комфорт 1015.5 1009.2
17 17.05 В 1 н/о н/о +20.9 +10.1 50 +24 +24 комфорт 1015.1 1008.8
18 17.05 В 1 30 км 9/1
[Cu hum Ac As]
+21.0 +9.3 47 +24 +24 комфорт 1014.9 1008.6
19 17.05 В 3 н/о н/о +20.9 +8.5 45 +23 +23 комфорт 1014.6 1008.3
20 17.05 СВ 2 н/о н/о +20.5 +9.1 48 +23 +23 комфорт 1014.6 1008.3
21 17.05 СВ 3 30 км 9/1
[Cu hum Ac As Ci sp]
+20.8 +8.4 45 +23 +23 комфорт 1014.7 1008.4
22 17.05 В 3 н/о н/о +21.3 +9.6 47 +23 +23 комфорт 1014.9 1008.6
23 17.05 В 5 н/о н/о +21.8 +10.0 47 +23 +23 комфорт 1014.9 1008.6
00 18.05 В 4 30 км 10/1
[Cu Sc Ac As]
+22.6 +10.4 46 +24 +26 комфорт 1015.2 1008.9 +20.4
01 18.05 В 3 н/о н/о +22.8 +10.6 46 +25 +25 комфорт 1015.4 1009.2
02 18.05 В 4 н/о н/о +23.2 +9.6 42 +25 +25 комфорт 1015.3 1009.1
03 18.05 В 3 25 км в посл. час дождь 10/3
[Cu med, cong Ac As]
+23.9 +9.9 41 +25 +29 комфорт 1014.8 1008.6
04 18.05 ЮВ 2 н/о н/о +22.2 +11.3 50 +24 +24 комфорт 1015.2 1008.9
05 18.05 С 2 н/о н/о +22.3 +12.8 55 +25 +25 комфорт 1015.2 1008.9
06 18.05 СВ 4 30 км в посл. час дождь 10/1
[Cu hum Ac As]
+23.3 +12.0 49 +26 +29 жарко 1014.1 1007.9 0.0
07 18.05 В 3 н/о н/о +24.5 +10.0 40 +25 +25 комфорт 1013.9 1007.7
08 18.05 ЮВ 4 н/о н/о +24.0 +9.6 40 +25 +25 комфорт 1013.9 1007.7
09 18.05 В 3 30 км слаб. дождь 10/1
[Cu Sc Ac As]
+23.5 +10.2 43 +25 +25 комфорт 1014.2 1008.0
10 18.05 В 3 н/о н/о +23.0 +11.1 47 +25 +25 комфорт 1014.8 1008.6
11 18.05 СВ 4 н/о н/о +21.9 +12.2 54 +24 +24 комфорт 1015.7 1009.4
12 18.05 В 2 20 км {дождь} 10/3
[Sc Ac As]
+21.9 +12.2 54 +24 +24 комфорт 1015.9 1009.6 +24.6 0.0
13 18.05 В 3 н/о н/о +21.9 +11.3 51 +24 +24 комфорт 1016.2 1009.9
14 18.05 В 2 н/о н/о +21.7 +10.8 50 +24 +24 комфорт 1016.6 1010.3
15 18.05 В 3 н/о н/о +21.4 +10.6 50 +23 +23 комфорт 1015.9 1009.6
16 18.05 В 2 н/о н/о +21.3 +10.5 50 +23 +23 комфорт 1015.5 1009.2
18 18.05 СВ 3 20 км 9/0
[Ac trans Ci sp]
+20.9 +10.7 52 +23 +23 комфорт 1015.1 1008.8
19 18.05 СВ 2 н/о н/о +20.7 +11.1 54 +23 +23 комфорт 1015.1 1008.8
20 18.05 С 4 н/о н/о +20.1 +11.1 56 +22 +22 комфорт 1015.4 1009.1
21 18.05 С 3 20 км 8/1
[Cu med, cong Ac As Ci sp]
+19.8 +11.6 59 +22 +22 комфорт 1015.6 1009.3
22 18.05 С 3 н/о н/о +20.5 +11.7 57 +23 +23 комфорт 1015.8 1009.5
23 18.05 В 3 н/о н/о +22.4 +11.5 50 +25 +25 комфорт 1015.7 1009.4
00 19.05 В 3 30 км 9/1
[Cu med, cong Ac trans Ci sp]
+23.7 +11.4 46 +25 +30 комфорт 1015.1 1008.9 +19.5
01 19.05 В 2 н/о н/о +25.1 +11.7 43 +27 +27 жарко 1014.8 1008.6
02 19.05 ЮВ 5 н/о н/о +27.3 +10.5 35 +28 +28 жарко 1014.2 1008.1
03 19.05 Ю 4 30 км 9/3
[Cu med, cong Ac As]
+24.9 +11.5 43 +26 +31 жарко 1014.0 1007.8
04 19.05 ЮВ 6 н/о н/о +25.3 +11.5 42 +27 +27 жарко 1014.0 1007.8
05 19.05 ЮВ 2 н/о н/о +25.6 +11.4 41 +27 +27 жарко 1013.5 1007.3
06 19.05 ЮЗ 5 30 км слаб. ливневой дождь 9/6
[Cu med, cong Ac As]
+24.8 +12.4 46 +27 +28 жарко 1012.9 1006.7 0.0
07 19.05 ЮЗ 3 н/о н/о +23.2 +14.0 56 +27 +27 душно 1012.7 1006.5
08 19.05 З 2 н/о н/о +23.8 +14.0 54 +26 +26 жарко 1012.5 1006.3

 

Местоположение метеостанции Хиросима (Япония): широта 34.40 долгота 132.46 высота над уровнем моря 53 м.

В архиве по умолчанию представлена погода в Хиросиме за последнюю неделю. Архивные данные за месяц целиком и за предыдущие месяцы, начиная с января 2011 года, Вы можете получить, выбрав интересующий диапазон дат из раскрывающегося списка и нажав кнопку "Ввод!".


*Определитесь, кто Вы:
робот инопланетянин человек

Внимание! Время в таблицах - всемирное. Для получения местного времени необходимо прибавить поправку, которая равна 9 ч.

Смотрите также архив погоды в соседних городах и на ближайших метеорологических станциях:

Погода в Куре (Япония) (21 км)
Погода в Хамаде (Япония) (67 км)
Погода в Мацуяме (Япония) (68 км)
Погода в Фукуяме (Япония) (73 км)
Погода в Ямагути (Япония) (96 км)
Погода в Хаги (Япония) (97 км)
Погода в Тадоцу (Япония) (119 км)
Погода в Мацуэ (Япония) (129 км)
Погода в Увадзиме (Япония) (130 км)
Погода в Окаяме (Япония) (136 км)

Пояснения к столбцам:

Ветер - указаны скорость ветра в м/с - средняя за 10 мин, порывы в срок и между сроками (в фигурных скобках) и направление, откуда дует ветер: С - северный, СВ - северо-восточный, В - восточный, ЮВ - юго-восточный, Ю - южный, ЮЗ - юго-западный, З - западный, СЗ - северо-западный.
Видимость - горизонтальная дальность видимости в метрах или километрах. При видимости от 1 до 10 км при отсутствии осадков обычно наблюдается дымка, при ухудшении видимости до 1 км и менее - туман. В сухую погоду видимость может ухудшаться дымом, пылью или мглою.
Явления - указаны атмосферные явления, наблюдавшиеся в срок или в последний час перед сроком; фигурными скобками обозначены явления, наблюдавшиеся между сроками (за 1-3 часа до срока); квадратными скобками обозначены град или гололедные отложения с указанием их диаметра в мм.
Облачность - указаны через наклонную черту общая и нижняя облачность в баллах и высота нижней границы облаков в метрах; квадратными скобками обозначены формы облаков: Ci - перистые, Cs - перисто-слоистые, Cc - перисто-кучевые, Ac - высококучевые, As - высокослоистые, Sc - слоисто-кучевые, Ns - слоисто-дождевые, Cu - кучевые, Cb - кучево-дождевые. Подробнее классификацию облаков см. в Атласе облаков (PDF).
T - Температура воздуха - температура, измеренная на высоте 2 м над землей.
Td - Температура точки росы - температура, при понижении до которой содержащийся в воздухе водяной пар достигнет насыщения.
f - Относительная влажность воздуха - влажноcть воздуха, измеренная на высоте 2 м над землей.
Te - Эффективная температура - температура, которую ощущает одетый по сезону человек в тени. Характеристика душности погоды. При расчете учитывается влияние влажности воздуха и скорости ветра на теплоощущения человека.
Tes - Эффективная температура на солнце - температура, которую ощущает человек, с поправкой на солнечный нагрев. Характеристика знойности погоды. Зависит от высоты солнца над горизонтом, облачности и скорости ветра. Ночью, в пасмурную погоду, а также при ветре 12 м/с и более поправка равна нулю.
P - Атмосферное давление - приведенное к уровню моря атмосферное давление.
Po - Атмосферное давление - измеренное на уровне метеостанции атмосферное давление.
Tmin - Минимальная температура - минимум температуры воздуха на высоте 2 м над землей.
Tmax - Максимальная температура - максимум температуры воздуха на высоте 2 м над землей.
R - Количество осадков - Количество выпавших осадков за период времени, мм. При наведении курсора мыши на число - период времени, за который выпало указанное количество осадков.
R24 - Количество осадков - Количество выпавших осадков за 24 часа, мм.
S - Снежный покров - Высота снежного покрова, см. При наведении курсора мыши на число - состояние снежного покрова и степень покрытия местности в баллах.